Regional Weather Roundup
Issued by NWS Newport/Morehead, NC

Current Version | Previous Version | Graphics & Text | Print | Product List | Glossary Off
Versions: 1 2 3 4 5 6 7 8 9 10 11 12 13 14 15 16 17 18 19 20 21 22 23 24 25 26 27 28 29 30 31 32 33 34 35 36 37 38 39 40 41 42 43 44 45 46 47 48 49 50

000
ASUS42 KMHX 290722
RWRMHX
WEATHER ROUNDUP FOR EASTERN NORTH CAROLINA
NATIONAL WEATHER SERVICE NEWPORT/MOREHEAD CITY NC
300 AM EDT TUE JUL 29 2014

NOTE: "FAIR" INDICATES FEW OR NO CLOUDS BELOW 12,000 FEET
WITH NO SIGNIFICANT WEATHER AND/OR OBSTRUCTIONS TO VISIBILITY

NCZ015>017-031-032-045>047-102-103-290800-
NORTH COAST

CITY           SKY/WX    TMP DP  RH WIND       PRES   REMARKS
EDENTON        CLEAR     69  61  76 N3        29.85R
ELIZABETH CITY CLEAR     69  60  73 NW7       29.84R
KITTY HAWK     SUNNY     74  61  64 CALM      29.82R
MANTEO         NOT AVBL

$$

NCZ045>047-081-094-103-104-290800-
CENTRAL COAST

CITY           SKY/WX    TMP DP  RH WIND       PRES   REMARKS
FRISCO         MOCLDY    79  62  56 VRB5      29.82S
SWANQUARTER      N/A     70 N/A N/A CALM      29.79S

$$

NCZ095-097-098-100-101-290800-
SOUTHERN COAST

CITY           SKY/WX    TMP DP  RH WIND       PRES   REMARKS
BEAUFORT       MOCLDY    74  68  81 N9        29.82F
CEDAR ISLAND     N/A     79 N/A N/A N12G17    29.85F
JACKSONVILLE   PTCLDY    73  65  75 N8        29.83S
NEWPORT        NOT AVBL
PINEY ISLAND   CLOUDY    78  70  76 N8        29.82S
WILMINGTON     MOCLDY    73  68  84 N8        29.83S


$$

NCZ011>013-027>030-043-044-078>080-089-090>093-098-290800-
COASTAL PLAIN

CITY           SKY/WX    TMP DP  RH WIND       PRES   REMARKS
AHOSKIE        CLEAR     62  60  92 CALM      29.86R
CLINTON        PTCLDY    72  64  76 CALM      29.85F
ELIZABETHTOWN  PTCLDY    70  65  83 CALM      29.85F
GOLDSBORO      MOCLDY    72  62  71 N6        29.84R
GREENVILLE     PTCLDY    68  61  77 CALM      29.88R
HAVELOCK       MOCLDY    73  67  81 N6        29.84S
KENANSVILLE    PTCLDY    70  61  73 CALM      29.86S
KINSTON        CLEAR     70  61  73 NW5       29.86S
NEW BERN       PTCLDY    73  63  70 N6        29.85R
RICHLANDS      PTCLDY    70  64  83 CALM      29.85S
ROANOKE RAPIDS NOT AVBL
ROCKY MOUNT    CLEAR     69  58  67 N5        29.86R
WASHINGTON     CLEAR     68  61  78 N3        29.85S
WHITEVILLE     PTCLDY    71  69  93 CALM      29.84S

$$

AMZ130-135-150-152-154-156-158-170-250-252-270-ANZ085-086-088-633-658-670-290800-
MARINE OBSERVATIONS

STATION/POSITION TIME  TEMP    WIND        PRES    WAVE   SWELL
                       AIR SEA DIR/SP/G            HT/PER HT/PER
                 (UTC) (F)     (DEG/KT/KT) (MB)    (FT/S) (FT/S)
CHESAPEAKE LIGHT NOT AVBL
BUOY 44014       0700   78 78  330/ 16/ 17 1008.7    3/ 4   2/ 8
DUCK             0700   72 68  330/ 10/ 11 1009.3
2E DUCK          0700                        N/A     2/ 8
OREGON INLET     0700   75 79  330/  5/  8 1009.7
BUOY 44095       0700      78                N/A     3/ 7
20E OREGON INLET NOT AVBL
HATTERAS CG      0700   80 82  360/ 10/ 14 1010.1
DIAMOND BUOY     0700          VRB  6/ 10  1009.7    3/ 8   3/ 8
CAPE LOOKOUT     0700   77     360/ 10/ 11 1009.7
BEAUFORT LAB     0700   76 82   10/  8/ 11 1009.5
30 SE NEW RIVER  0700   81 81   20/ 14/ 16 1009.8    4/ 6   3/ 8
5 SE WRIGHTSVILL 0700   75 82   20/ 16/ 17   N/A
BUOY 41002       0649   82 81  230/ 17/ 23 1012.2    6/ 7
BUOY 41004       0700   84 84  330/ 12/ 14 1008.5    4/ 6   3/ 6

$$



USA.gov is the U.S. government's official web portal to all federal, state and local government web resources and services.